Regional Weather Roundup
Issued by NWS Wakefield, VA

Home | Current Version | Previous Version | Text Only | Print | Product List | Glossary On
Versions: 1 2 3 4 5 6 7 8 9 10 11 12 13 14 15 16 17 18 19 20 21 22 23 24 25 26 27
000
ASUS41 KAKQ 260710
RWRAKQ

REGIONAL WEATHER ROUNDUP
NATIONAL WEATHER SERVICE WAKEFIELD VA
300 AM EDT SUN OCT 26 2014

Note: "fair" indicates few or no clouds below 12,000 feet with no
significant weather and/or obstructions to visibility. * = Denotes
station may not report precipitation (e.g., rain,snow,etc.),
thunder or fog.

VAZ042-051-052>054-056-260800-
NORTHERN VIRGINIA

CITY           SKY/WX    TMP DP  RH WIND       PRES   REMARKS
WASH NATIONAL  PTCLDY    57  45  64 S9        29.69S
DULLES         PTCLDY    61  44  53 W21G26    29.70S
FORT BELVOIR   CLEAR     46  45  95 CALM      29.70S
QUANTICO       CLEAR     52  47  83 NW8       29.71S
FREDERICKSBRG* CLEAR     56  47  72 SW8       29.71R
STAFFORD*      CLEAR     48  43  83 CALM      29.76R
WARRENTON      CLEAR     44  44 100 CALM      29.71R
CULPEPER*      CLEAR     46  45  93 CALM      29.73R
MANASSAS*      CLEAR     45  45 100 CALM      29.71S
LEESBURG*      CLEAR     64  50  59 NW15G22   29.70R
WINCHESTER     CLEAR     63  36  36 W18G24    29.72R
FRONT ROYAL*   SUNNY     63  37  39 W12G23    29.73R
LURAY*         SUNNY     64  36  34 NW9G17    29.73F
$$

VAZ048-049-060>072-079>083-260800-
CENTRAL AND SOUTH CENTRAL VIRGINIA...AND NORTH CENTRAL NORTH CAROLINA

CITY           SKY/WX    TMP DP  RH WIND       PRES   REMARKS
RICHMOND       CLEAR     58  46  64 W6        29.74F
CHESTERFIELD*    N/A    N/A N/A N/A MISG        N/A
PETERSBURG*    CLEAR     46  44  90 SW5       29.76F
HANOVER        CLEAR     57  47  69 SW7       29.75F
TAPPAHANNOCK*  CLEAR     57  43  59 SW7       29.72F
CHARLOTTSVILLE CLEAR     63  47  55 S6        29.74S
ORANGE*        CLEAR     46  45  93 SW5       29.74S
LOUISA*        CLEAR     55  48  76 SW5       29.72S
FARMVILLE*     CLEAR     54  46  76 S3        29.74F
CREWE*         SUNNY     58  47  68 CALM      29.77F
FORT PICKETT*  SUNNY     56  48  74 W6        29.77F
LUNENBURG*     SUNNY     54  47  78 CALM      29.78F
SOUTH HILL*    CLEAR     57  48  72 SW5       29.85S
LAWRENCEVILLE* SUNNY     54  47  76 W3        29.78F
ROANOKE RAPIDS SUNNY     54  43  66 W5        29.79R
RALEIGH        CLEAR     51  42  71 CALM      29.84S
$$

VAZ088>098-260800-
SOUTHEAST VIRGINIA

CITY           SKY/WX    TMP DP  RH WIND       PRES   REMARKS
NORFOLK        CLEAR     59  44  57 SW9       29.74S
VIRGINIA BEACH CLEAR     58  44  60 W10       29.73F
NORFOLK NAVAL  CLEAR     61  46  57 W8        29.75F
WEST POINT*    CLEAR     52  46  78 CALM      29.74F
NEWPORT NEWS   CLEAR     57  46  66 SW7       29.74S
LANGLEY AFB    CLEAR     56  47  72 SW9       29.73F
FORT EUSTIS    CLEAR     56  46  68 CALM      29.72F
WILLIAMSBURG*  CLEAR     57  48  72 W9        29.74F
HR EXEC AP*    SUNNY     45  41  87 CALM      29.77S
FRANKLIN*      CLEAR     55  45  67 W6        29.76S
WAKEFIELD      CLEAR     56  46  69 W6        29.76S
$$

VAZ020-022-025-037-045-260800-
WEST CENTRAL AND SOUTHWEST VIRGINIA

CITY           SKY/WX    TMP DP  RH WIND       PRES   REMARKS
STAUNTON*      CLEAR     64  35  34 NW17G26   29.79S
HOT SPRINGS VA CLOUDY    55  44  67 NW17G26   29.82R
LYNCHBURG      PTCLDY    59  50  72 SW6       29.82F
DANVILLE       CLEAR     54  47  77 W7        29.84S
SOUTH BOSTON*  NOT AVBL
MARTINSVILLE   CLEAR     62  50  65 W3        29.89S
ROANOKE        MOCLDY    60  50  69 SW3       29.84F
BLACKSBURG     CLOUDY    61  54  77 W6G16     29.88F
DUBLIN*        MOCLDY    63  54  72 NW17G30   29.88F
MARION*        CLOUDY    53  48  83 W15       29.96S
HILLSVILLE*    CLEAR     55  49  81 W8        29.92S
RICHLANDS*     CLOUDY    58  33  38 W10G16    29.97S
WISE*          CLEAR     59  55  88 W9G17     30.00S
ABINGDON*      CLEAR     53  49  86 W6        29.99S
$$

MDZ021>025-VAZ099-100-260800-
SOUTHERN MARYLAND AND THE DELMARVA PENINSULA

CITY           SKY/WX    TMP DP  RH WIND       PRES   REMARKS
PATUXENT RIVER CLEAR     57  45  64 SW10      29.68F
BAY BRIDGE APT   N/A     59  48  67 W7        29.67S
LEONARDTOWN    CLEAR     54  45  71 SW3       29.70F
DOVER          CLEAR     56  47  73 SW10      29.61F
GEORGETOWN     CLEAR     56  46  69 SW5       29.66F
EASTON         CLEAR     59  51  75 W5        29.70S
CAMBRIDGE      CLEAR     55  48  76 SW3       29.67S
SALISBURY      CLEAR     58  49  72 SW8       29.67F
OCEAN CITY     CLEAR     57  47  69 W8        29.66F
WALLOPS ISLAND CLEAR     59  50  72 W8        29.69F
ACCOMACK*      CLEAR     59  46  63 W6        29.71S
$$

NCZ012>017-030>032-260800-
EASTERN NORTH CAROLINA

CITY           SKY/WX    TMP DP  RH WIND       PRES   REMARKS
ELIZABETH CITY CLEAR     59  44  57 W8        29.76S
AHOSKIE*       CLEAR     51  44  75 CALM      29.79R
EDENTON*       CLEAR     59  47  64 W6        29.78S
CURRITUCK*     CLEAR     58  43  56 SW9       29.76S
KILL DEVIL HLS CLEAR     60  48  63 W8        29.75S
MANTEO         CLEAR     59  49  67 SW8       29.77S
CAPE HATTERAS  CLEAR     62  49  62 W9        29.79F
TARBORO*       SUNNY     56  45  66 W5        29.81S
GOLDSBORO      CLEAR     53  49  87 W8        29.82S
WASHINGTON     CLEAR     53  44  70 W3        29.81S
GREENVILLE     CLEAR     55  45  67 W3        29.83S
NEW BERN       CLEAR     58  43  57 SW8       29.83F
WILMINGTON     CLEAR     56  45  66 W7        29.87F
$$

VAZ048-260800-
ELSEWHERE

CITY           SKY/WX    TMP DP  RH WIND       PRES   REMARKS
HARRISBURG PA  PTCLDY    62  37  39 NW20      29.64R
BALTIMORE      PTCLDY    53  45  74 W6        29.66S
ANNAPOLIS      PTCLDY    57  45  64 W3        29.66S
ANDREWS AFB    CLEAR     51  44  79 SW5       29.68S
WILMINGTON DE  CLOUDY    59  47  64 SW7       29.63S
PHILADELPHIA   CLOUDY    60  48  64 SW6       29.61S
WILDWOOD NJ*   PTCLDY    61  46  59 SW10      29.63F
ATLANTIC CITY  PTCLDY    57  47  69 W8        29.61F
HENDERSON NC   CLEAR     52  43  72 SW6       29.82S
GREENSBORO     CLEAR     58  48  69 NW12      29.86F
ROCKY MOUNT    CLEAR     57  43  59 SW6       29.81F
FAYETTEVILLE   CLEAR     56  44  64 W9        29.86F
CHARLOTTE      CLEAR     50  44  80 W3        29.92F
$$

VAZ100-260800-
MARINE

STATION/POSITION TIME  TEMP    WIND        PRES    WAVE   SWELL
                       AIR SEA DIR/SP/G            HT/PER HT/PER
                 (UTC) (F)     (DEG/KT/KT) (MB)    (FT/S) (FT/S)
44066 TX TWR #4  0700   64 65  250/ 23/ 29 1000.5F   8/ 7
CAPE MAY NJ      0700   61 63  250/ 17/ 19 1002.6S
LEWES DE         0700   58 60  240/ 10/ 13 1003.4F
15NM E FENWICK I 0700   62 64  250/ 17/ 21 1003.5F   4/ 6
OCEAN-CITY-INLET 0700   59 62  280/ 11/ 16 1004.0S
WACHAPREAGUE VA  0700   59 61  260/  4/  6 1005.9S
THOMAS POINT MD  0700   59 62  250/  9/ 10 1005.8R
GOOSES REEF MD   0700   61     260/ 12/ 14 1005.4S
COVE POINT MD    0700   60     260/ 12/ 14 1005.0R
SOLOMONS ISLAND  0700      63                N/A
BISHOPS HEAD MD  0700   62 58  250/ 12/ 16 1004.5F
PINEY POINT MD   0700          320/  4/  5   N/A
POTOMAC MD       0700   60     270/  8/ 10 1005.0S
CAMBRIDGE MD     0700   58 60  220/  8/ 11 1004.5R
LEWISETTA VA     0700   58 60  250/ 10/ 12 1005.2S
RAPPAHANNOCK LGT 0700          260/ 12/ 14 1006.3F
STINGRAY PT      0700   59     270/  8/ 10 1006.9F
YORK RVR RNG VA  0700   61     280/ 14/ 17 1005.8F
YORKTOWN VA      0700   60 64  280/  8/  9 1006.2F
JAMESTOWN VA     0700   59     310/ 12/ 16   N/A
DOMINION TERM VA 0700   60     280/ 10/ 11 1007.0S
KIPTOPEKE VA     0700      66  280/ 10/ 15   N/A
CHES BAY BRIDGE  0700   62 64  240/ 15/ 18 1006.1F
CHESAPEAKE LGHT  0600   63     260/ 19/ 21 1007.3R
WILLOUBY STN VA  0700   61     280/ 12/ 14 1005.5R
S CRANEY ISL VA  0700          210/  5/  7 1006.7F
CAPE HENRY BUOY  0700      67                N/A     3/ 4
1ST LANDING BUOY 0700   63     260/ 16/ 19 1006.6S
CAPE CHARLES BUO 0700      66                N/A     3/ 4   2/ 9
64NM E OF VA BCH 0700   66 66  250/ 17/ 21 1006.2F   4/ 5   2/ 9
DUCK PIER NC     0700   61 66  250/ 10/ 13 1006.9S
44100 DUCK FRF   0700      67                N/A     3/ 3
44056 DUCK FRF   0700                        N/A     2/11
OREGON INLET NC  0700   62 66  230/ 16/ 20 1007.7S
HATTERAS NC      0700   64 67  250/ 11/ 14 1009.3R
DIAMOND SHLS NC  0700   68     260/ 17/ 21 1008.9F   4/ 4   2/10
CAPE LOOKOUT NC  0600   68     260/ 15/ 17 1010.2F
$$



USA.gov is the U.S. government's official web portal to all federal, state and local government web resources and services.